Tracking 29068 objects as of 19-Jul-2024
HD Live streaming from Space Station
objects crossing your sky now

STARLINK-30165

Track STARLINK-30165 now!
10-day predictions
STARLINK-30165 is classified as:


NORAD ID: 57457
Int'l Code: 2023-107A
Perigee: 565.1 km
Apogee: 567.3 km
Inclination: 43.0 °
Period: 95.8 minutes
Semi major axis: 6937 km
RCS: Unknown
Launch date: July 28, 2023
Source: (TBD)
Launch site: AIR FORCE EASTERN TEST RANGE (AFETR)
Your satellite tracking list
Your tracking list is empty




NASA's NSSDC Master Catalog

Two Line Element Set (TLE):
1 57457U 23107A   24200.61338599  .00000717  00000-0  68166-4 0  9999
2 57457  43.0038 354.4508 0001592 273.6583  86.4078 15.02530868 54985
Source of the keplerian elements: AFSPC